Year,Month,Day,Hour,Minute,Value (Times are PST for temperature in C)
2015,09,28,00,00,7.70
2015,09,28,00,01,7.70
2015,09,28,00,02,7.70
2015,09,28,00,03,7.70
2015,09,28,00,04,7.70
2015,09,28,00,05,7.70
2015,09,28,00,06,7.60
2015,09,28,00,07,7.60
2015,09,28,00,08,7.60
2015,09,28,00,09,7.60
2015,09,28,00,10,7.60
2015,09,28,00,11,7.60
2015,09,28,00,12,7.60
2015,09,28,00,13,7.60
2015,09,28,00,14,7.60
2015,09,28,00,15,7.60
2015,09,28,00,16,7.60
2015,09,28,00,17,7.60
2015,09,28,00,18,7.60
2015,09,28,00,19,7.60
2015,09,28,00,20,7.60
2015,09,28,00,21,7.60
2015,09,28,00,22,7.60
2015,09,28,00,23,7.60
2015,09,28,00,24,7.60
2015,09,28,00,25,7.60
2015,09,28,00,26,7.60
2015,09,28,00,27,7.60
2015,09,28,00,28,7.60
2015,09,28,00,29,7.60
2015,09,28,00,30,7.60
2015,09,28,00,31,7.60
2015,09,28,00,32,7.60
2015,09,28,00,33,7.60
2015,09,28,00,34,7.60
2015,09,28,00,35,7.60
2015,09,28,00,36,7.60
2015,09,28,00,37,7.60
2015,09,28,00,38,7.60
2015,09,28,00,39,7.50
2015,09,28,00,40,7.50
2015,09,28,00,41,7.50
2015,09,28,00,42,7.50
2015,09,28,00,43,7.50
2015,09,28,00,44,7.50
2015,09,28,00,45,7.50
2015,09,28,00,46,7.50
2015,09,28,00,47,7.50
2015,09,28,00,48,7.50
2015,09,28,00,49,7.40
2015,09,28,00,50,7.40
2015,09,28,00,51,7.40
2015,09,28,00,52,7.40
2015,09,28,00,53,7.40
2015,09,28,00,54,7.40
2015,09,28,00,55,7.40
2015,09,28,00,56,7.40
2015,09,28,00,57,7.40
2015,09,28,00,58,7.40
2015,09,28,00,59,7.40
2015,09,28,01,00,7.40
2015,09,28,01,01,7.40
2015,09,28,01,02,7.40
2015,09,28,01,03,7.40
2015,09,28,01,04,7.40
2015,09,28,01,05,7.40
2015,09,28,01,06,7.40
2015,09,28,01,07,7.40
2015,09,28,01,08,7.40
2015,09,28,01,09,7.40
2015,09,28,01,10,7.40
2015,09,28,01,11,7.40
2015,09,28,01,12,7.40
2015,09,28,01,13,7.40
2015,09,28,01,14,7.40
2015,09,28,01,15,7.40
2015,09,28,01,16,7.40
2015,09,28,01,17,7.40
2015,09,28,01,18,7.40
2015,09,28,01,19,7.40
2015,09,28,01,20,7.40
2015,09,28,01,21,7.40
2015,09,28,01,22,7.40
2015,09,28,01,23,7.40
2015,09,28,01,24,7.40
2015,09,28,01,25,7.40
2015,09,28,01,26,7.30
2015,09,28,01,27,7.30
2015,09,28,01,28,7.30
2015,09,28,01,29,7.30
2015,09,28,01,30,7.30
2015,09,28,01,31,7.30
2015,09,28,01,32,7.30
2015,09,28,01,33,7.30
2015,09,28,01,34,7.20
2015,09,28,01,35,7.20
2015,09,28,01,36,7.20
2015,09,28,01,37,7.20
2015,09,28,01,38,7.20
2015,09,28,01,39,7.20
2015,09,28,01,40,7.20
2015,09,28,01,41,7.20
2015,09,28,01,42,7.20
2015,09,28,01,43,7.20
2015,09,28,01,44,7.20
2015,09,28,01,45,7.20
2015,09,28,01,46,7.20
2015,09,28,01,47,7.20
2015,09,28,01,48,7.10
2015,09,28,01,49,7.10
2015,09,28,01,50,7.10
2015,09,28,01,51,7.10
2015,09,28,01,52,7.10
2015,09,28,01,53,7.10
2015,09,28,01,54,7.10
2015,09,28,01,55,7.10
2015,09,28,01,56,7.10
2015,09,28,01,57,7.10
2015,09,28,01,58,7.10
2015,09,28,01,59,7.10
2015,09,28,02,00,7.10
2015,09,28,02,01,7.10
2015,09,28,02,02,7.10
2015,09,28,02,03,7.10
2015,09,28,02,04,7.10
2015,09,28,02,05,7.10
2015,09,28,02,06,7.10
2015,09,28,02,07,7.10
2015,09,28,02,08,7.10
2015,09,28,02,09,7.10
2015,09,28,02,10,7.10
2015,09,28,02,11,7.10
2015,09,28,02,12,7.10
2015,09,28,02,13,7.10
2015,09,28,02,14,7.10
2015,09,28,02,15,7.10
2015,09,28,02,16,7.10
2015,09,28,02,17,7.10
2015,09,28,02,18,7.00
2015,09,28,02,19,7.10
2015,09,28,02,20,7.10
2015,09,28,02,21,7.10
2015,09,28,02,22,7.10
2015,09,28,02,23,7.10
2015,09,28,02,24,7.10
2015,09,28,02,25,7.10
2015,09,28,02,26,7.10
2015,09,28,02,27,7.10
2015,09,28,02,28,7.10
2015,09,28,02,29,7.10
2015,09,28,02,30,7.10
2015,09,28,02,31,7.10
2015,09,28,02,32,7.10
2015,09,28,02,33,7.10
2015,09,28,02,34,7.10
2015,09,28,02,35,7.10
2015,09,28,02,36,7.10
2015,09,28,02,37,7.10
2015,09,28,02,38,7.10
2015,09,28,02,39,7.10
2015,09,28,02,40,7.10
2015,09,28,02,41,7.10
2015,09,28,02,42,7.10
2015,09,28,02,43,7.10
2015,09,28,02,44,7.10
2015,09,28,02,45,7.10
2015,09,28,02,46,7.10
2015,09,28,02,47,7.10
2015,09,28,02,48,7.10
2015,09,28,02,49,7.10
2015,09,28,02,50,7.10
2015,09,28,02,51,7.10
2015,09,28,02,52,7.10
2015,09,28,02,53,7.20
2015,09,28,02,54,7.10
2015,09,28,02,55,7.20
2015,09,28,02,56,7.20
2015,09,28,02,57,7.20
2015,09,28,02,58,7.20
2015,09,28,02,59,7.20
2015,09,28,03,00,7.20
2015,09,28,03,01,7.20
2015,09,28,03,02,7.20
2015,09,28,03,03,7.20
2015,09,28,03,04,7.20
2015,09,28,03,05,7.10
2015,09,28,03,06,7.10
2015,09,28,03,07,7.10
2015,09,28,03,08,7.10
2015,09,28,03,09,7.10
2015,09,28,03,10,7.10
2015,09,28,03,11,7.10
2015,09,28,03,12,7.10
2015,09,28,03,13,7.10
2015,09,28,03,14,7.10
2015,09,28,03,15,7.00
2015,09,28,03,16,7.00
2015,09,28,03,17,7.00
2015,09,28,03,18,7.00
2015,09,28,03,19,7.00
2015,09,28,03,20,7.00
2015,09,28,03,21,7.00
2015,09,28,03,22,7.00
2015,09,28,03,23,7.00
2015,09,28,03,24,7.00
2015,09,28,03,25,7.00
2015,09,28,03,26,7.00
2015,09,28,03,27,7.00
2015,09,28,03,28,7.00
2015,09,28,03,29,7.00
2015,09,28,03,30,7.00
2015,09,28,03,31,7.00
2015,09,28,03,32,7.10
2015,09,28,03,33,7.10
2015,09,28,03,34,7.10
2015,09,28,03,35,7.10
2015,09,28,03,36,7.10
2015,09,28,03,37,7.10
2015,09,28,03,38,7.10
2015,09,28,03,39,7.10
2015,09,28,03,40,7.10
2015,09,28,03,41,7.10
2015,09,28,03,42,7.10
2015,09,28,03,43,7.10
2015,09,28,03,44,7.10
2015,09,28,03,45,7.10
2015,09,28,03,46,7.10
2015,09,28,03,47,7.10
2015,09,28,03,48,7.10
2015,09,28,03,49,7.10
2015,09,28,03,50,7.10
2015,09,28,03,51,7.10
2015,09,28,03,52,7.20
2015,09,28,03,53,7.20
2015,09,28,03,54,7.20
2015,09,28,03,55,7.20
2015,09,28,03,56,7.20
2015,09,28,03,57,7.20
2015,09,28,03,58,7.20
2015,09,28,03,59,7.20
2015,09,28,04,00,7.30
2015,09,28,04,01,7.30
2015,09,28,04,02,7.30
2015,09,28,04,03,7.30
2015,09,28,04,04,7.30
2015,09,28,04,05,7.30
2015,09,28,04,06,7.30
2015,09,28,04,07,7.30
2015,09,28,04,08,7.30
2015,09,28,04,09,7.30
2015,09,28,04,10,7.30
2015,09,28,04,11,7.30
2015,09,28,04,12,7.30
2015,09,28,04,13,7.20
2015,09,28,04,14,7.20
2015,09,28,04,15,7.20
2015,09,28,04,16,7.20
2015,09,28,04,17,7.20
2015,09,28,04,18,7.30
2015,09,28,04,19,7.30
2015,09,28,04,20,7.30
2015,09,28,04,21,7.30
2015,09,28,04,22,7.30
2015,09,28,04,23,7.40
2015,09,28,04,24,7.40
2015,09,28,04,25,7.40
2015,09,28,04,26,7.40
2015,09,28,04,27,7.40
2015,09,28,04,28,7.50
2015,09,28,04,29,7.50
2015,09,28,04,30,7.50
2015,09,28,04,31,7.50
2015,09,28,04,32,7.50
2015,09,28,04,33,7.50
2015,09,28,04,34,7.50
2015,09,28,04,35,7.50
2015,09,28,04,36,7.50
2015,09,28,04,37,7.50
2015,09,28,04,38,7.50
2015,09,28,04,39,7.50
2015,09,28,04,40,7.50
2015,09,28,04,41,7.60
2015,09,28,04,42,7.50
2015,09,28,04,43,7.50
2015,09,28,04,44,7.50
2015,09,28,04,45,7.50
2015,09,28,04,46,7.50
2015,09,28,04,47,7.40
2015,09,28,04,48,7.40
2015,09,28,04,49,7.40
2015,09,28,04,50,7.40
2015,09,28,04,51,7.40
2015,09,28,04,52,7.40
2015,09,28,04,53,7.40
2015,09,28,04,54,7.40
2015,09,28,04,55,7.40
2015,09,28,04,56,7.40
2015,09,28,04,57,7.50
2015,09,28,04,58,7.50
2015,09,28,04,59,7.50
2015,09,28,05,00,7.50
2015,09,28,05,01,7.50
2015,09,28,05,02,7.60
2015,09,28,05,03,7.60
2015,09,28,05,04,7.50
2015,09,28,05,05,7.50
2015,09,28,05,06,7.50
2015,09,28,05,07,7.50
2015,09,28,05,08,7.50
2015,09,28,05,09,7.50
2015,09,28,05,10,7.50
2015,09,28,05,11,7.50
2015,09,28,05,12,7.50
2015,09,28,05,13,7.50
2015,09,28,05,14,7.50
2015,09,28,05,15,7.50
2015,09,28,05,16,7.50
2015,09,28,05,17,7.50
2015,09,28,05,18,7.50
2015,09,28,05,19,7.50
2015,09,28,05,20,7.50
2015,09,28,05,21,7.50
2015,09,28,05,22,7.50
2015,09,28,05,23,7.50
2015,09,28,05,24,7.50
2015,09,28,05,25,7.50
2015,09,28,05,26,7.50
2015,09,28,05,27,7.50
2015,09,28,05,28,7.50
2015,09,28,05,29,7.50
2015,09,28,05,30,7.50
2015,09,28,05,31,7.50
2015,09,28,05,32,7.50
2015,09,28,05,33,7.60
2015,09,28,05,34,7.50
2015,09,28,05,35,7.50
2015,09,28,05,36,7.50
2015,09,28,05,37,7.50
2015,09,28,05,38,7.50
2015,09,28,05,39,7.50
2015,09,28,05,40,7.40
2015,09,28,05,41,7.40
2015,09,28,05,42,7.40
2015,09,28,05,43,7.40
2015,09,28,05,44,7.40
2015,09,28,05,45,7.40
2015,09,28,05,46,7.30
2015,09,28,05,47,7.30
2015,09,28,05,48,7.30
2015,09,28,05,49,7.30
2015,09,28,05,50,7.30
2015,09,28,05,51,7.20
2015,09,28,05,52,7.20
2015,09,28,05,53,7.20
2015,09,28,05,54,7.20
2015,09,28,05,55,7.20
2015,09,28,05,56,7.20
2015,09,28,05,57,7.20
2015,09,28,05,58,7.20
2015,09,28,05,59,7.20
2015,09,28,06,00,7.20
2015,09,28,06,01,7.20
2015,09,28,06,02,7.20
2015,09,28,06,03,7.20
2015,09,28,06,04,7.20
2015,09,28,06,05,7.20
2015,09,28,06,06,7.20
2015,09,28,06,07,7.20
2015,09,28,06,08,7.20
2015,09,28,06,09,7.20
2015,09,28,06,10,7.20
2015,09,28,06,11,7.20
2015,09,28,06,12,7.30
2015,09,28,06,13,7.30
2015,09,28,06,14,7.30
2015,09,28,06,15,7.30
2015,09,28,06,16,7.30
2015,09,28,06,17,7.30
2015,09,28,06,18,7.30
2015,09,28,06,19,7.30
2015,09,28,06,20,7.20
2015,09,28,06,21,7.20
2015,09,28,06,22,7.20
2015,09,28,06,23,7.20
2015,09,28,06,24,7.20
2015,09,28,06,25,7.10
2015,09,28,06,26,7.10
2015,09,28,06,27,7.10
2015,09,28,06,28,7.10
2015,09,28,06,29,7.10
2015,09,28,06,30,7.10
2015,09,28,06,31,7.10
2015,09,28,06,32,7.10
2015,09,28,06,33,7.10
2015,09,28,06,34,7.10
2015,09,28,06,35,7.10
2015,09,28,06,36,7.20
2015,09,28,06,37,7.20
2015,09,28,06,38,7.20
2015,09,28,06,39,7.20
2015,09,28,06,40,7.20
2015,09,28,06,41,7.20
2015,09,28,06,42,7.20
2015,09,28,06,43,7.20
2015,09,28,06,44,7.20
2015,09,28,06,45,7.20
2015,09,28,06,46,7.20
2015,09,28,06,47,7.20
2015,09,28,06,48,7.20
2015,09,28,06,49,7.20
2015,09,28,06,50,7.20
2015,09,28,06,51,7.10
2015,09,28,06,52,7.10
2015,09,28,06,53,7.10
2015,09,28,06,54,7.10
2015,09,28,06,55,7.10
2015,09,28,06,56,7.10
2015,09,28,06,57,7.00
2015,09,28,06,58,7.00
2015,09,28,06,59,7.00
2015,09,28,07,00,6.90
2015,09,28,07,01,6.90
2015,09,28,07,02,6.90
2015,09,28,07,03,6.90
2015,09,28,07,04,6.90
2015,09,28,07,05,6.80
2015,09,28,07,06,6.80
2015,09,28,07,07,6.80
2015,09,28,07,08,6.80
2015,09,28,07,09,6.70
2015,09,28,07,10,6.70
2015,09,28,07,11,6.70
2015,09,28,07,12,6.70
2015,09,28,07,13,6.70
2015,09,28,07,14,6.60
2015,09,28,07,15,6.60
2015,09,28,07,16,6.60
2015,09,28,07,17,6.60
2015,09,28,07,18,6.60
2015,09,28,07,19,6.60
2015,09,28,07,20,6.60
2015,09,28,07,21,6.60
2015,09,28,07,22,6.60
2015,09,28,07,23,6.60
2015,09,28,07,24,6.60
2015,09,28,07,25,6.60
2015,09,28,07,26,6.60
2015,09,28,07,27,6.60
2015,09,28,07,28,6.60
2015,09,28,07,29,6.60
2015,09,28,07,30,6.60
2015,09,28,07,31,6.60
2015,09,28,07,32,6.60
2015,09,28,07,33,6.60
2015,09,28,07,34,6.50
2015,09,28,07,35,6.50
2015,09,28,07,36,6.50
2015,09,28,07,37,6.50
2015,09,28,07,38,6.50
2015,09,28,07,39,6.60
2015,09,28,07,40,6.60
2015,09,28,07,41,6.60
2015,09,28,07,42,6.60
2015,09,28,07,43,6.60
2015,09,28,07,44,6.60
2015,09,28,07,45,6.60
2015,09,28,07,46,6.60
2015,09,28,07,47,6.60
2015,09,28,07,48,6.60
2015,09,28,07,49,6.70
2015,09,28,07,50,6.70
2015,09,28,07,51,6.70
2015,09,28,07,52,6.70
2015,09,28,07,53,6.70
2015,09,28,07,54,6.70
2015,09,28,07,55,6.70
2015,09,28,07,56,6.70
2015,09,28,07,57,6.70
2015,09,28,07,58,6.70
2015,09,28,07,59,6.70
2015,09,28,08,00,6.70
2015,09,28,08,01,6.80
2015,09,28,08,02,6.80
2015,09,28,08,03,6.80
2015,09,28,08,04,6.80
2015,09,28,08,05,6.80
2015,09,28,08,06,6.90
2015,09,28,08,07,6.90
2015,09,28,08,08,6.90
2015,09,28,08,09,6.90
2015,09,28,08,10,7.00
2015,09,28,08,11,7.00
2015,09,28,08,12,7.00
2015,09,28,08,13,7.00
2015,09,28,08,14,7.10
2015,09,28,08,15,7.10
2015,09,28,08,16,7.10
2015,09,28,08,17,7.10
2015,09,28,08,18,7.10
2015,09,28,08,19,7.10
2015,09,28,08,20,7.20
2015,09,28,08,21,7.20
2015,09,28,08,22,7.30
2015,09,28,08,23,7.30
2015,09,28,08,24,7.30
2015,09,28,08,25,7.40
2015,09,28,08,26,7.40
2015,09,28,08,27,7.50
2015,09,28,08,28,7.50
2015,09,28,08,29,7.60
2015,09,28,08,30,7.60
2015,09,28,08,31,7.70
2015,09,28,08,32,7.70
2015,09,28,08,33,7.80
2015,09,28,08,34,7.90
2015,09,28,08,35,7.90
2015,09,28,08,36,8.00
2015,09,28,08,37,8.00
2015,09,28,08,38,8.10
2015,09,28,08,39,8.20
2015,09,28,08,40,8.30
2015,09,28,08,41,8.30
2015,09,28,08,42,8.40
2015,09,28,08,43,8.40
2015,09,28,08,44,8.50
2015,09,28,08,45,8.60
2015,09,28,08,46,8.70
2015,09,28,08,47,8.90
2015,09,28,08,48,9.00
2015,09,28,08,49,9.20
2015,09,28,08,50,9.40
2015,09,28,08,51,9.50
2015,09,28,08,52,9.70
2015,09,28,08,53,9.90
2015,09,28,08,54,10.00
2015,09,28,08,55,10.10
2015,09,28,08,56,10.20
2015,09,28,08,57,10.30
2015,09,28,08,58,10.40
2015,09,28,08,59,10.50
2015,09,28,09,00,10.60
2015,09,28,09,01,10.70
2015,09,28,09,02,10.70
2015,09,28,09,03,10.80
2015,09,28,09,04,10.90
2015,09,28,09,05,11.00
2015,09,28,09,06,11.10
2015,09,28,09,07,11.20
2015,09,28,09,08,11.20
2015,09,28,09,09,11.30
2015,09,28,09,10,11.40
2015,09,28,09,11,11.40
2015,09,28,09,12,11.50
2015,09,28,09,13,11.60
2015,09,28,09,14,11.60
2015,09,28,09,15,11.70
2015,09,28,09,16,11.80
2015,09,28,09,17,11.80
2015,09,28,09,18,11.80
2015,09,28,09,19,11.90
2015,09,28,09,20,11.90
2015,09,28,09,21,12.00
2015,09,28,09,22,12.00
2015,09,28,09,23,12.10
2015,09,28,09,24,12.10
2015,09,28,09,25,12.10
2015,09,28,09,26,12.20
2015,09,28,09,27,12.20
2015,09,28,09,28,12.20
2015,09,28,09,29,12.30
2015,09,28,09,30,12.30
2015,09,28,09,31,12.30
2015,09,28,09,32,12.30
2015,09,28,09,33,12.30
2015,09,28,09,34,12.40
2015,09,28,09,35,12.40
2015,09,28,09,36,12.40
2015,09,28,09,37,12.40
2015,09,28,09,38,12.40
2015,09,28,09,39,12.50
2015,09,28,09,40,12.50
2015,09,28,09,41,12.50
2015,09,28,09,42,12.50
2015,09,28,09,43,12.60
2015,09,28,09,44,12.60
2015,09,28,09,45,12.60
2015,09,28,09,46,12.60
2015,09,28,09,47,12.70
2015,09,28,09,48,12.70
2015,09,28,09,49,12.70
2015,09,28,09,50,12.70
2015,09,28,09,51,12.80
2015,09,28,09,52,12.80
2015,09,28,09,53,12.80
2015,09,28,09,54,12.80
2015,09,28,09,55,12.80
2015,09,28,09,56,12.90
2015,09,28,09,57,12.90
2015,09,28,09,58,12.90
2015,09,28,09,59,12.90
2015,09,28,10,00,12.90
2015,09,28,10,01,13.00
2015,09,28,10,02,13.00
2015,09,28,10,03,13.00
2015,09,28,10,04,13.10
2015,09,28,10,05,13.10
2015,09,28,10,06,13.10
2015,09,28,10,07,13.10
2015,09,28,10,08,13.10
2015,09,28,10,09,13.10
2015,09,28,10,10,13.10
2015,09,28,10,11,13.10
2015,09,28,10,12,13.10
2015,09,28,10,13,13.10
2015,09,28,10,14,13.20
2015,09,28,10,15,13.20
2015,09,28,10,16,13.20
2015,09,28,10,17,13.20
2015,09,28,10,18,13.20
2015,09,28,10,19,13.30
2015,09,28,10,20,13.30
2015,09,28,10,21,13.30
2015,09,28,10,22,13.30
2015,09,28,10,23,13.30
2015,09,28,10,24,13.30
2015,09,28,10,25,13.30
2015,09,28,10,26,13.40
2015,09,28,10,27,13.40
2015,09,28,10,28,13.40
2015,09,28,10,29,13.40
2015,09,28,10,30,13.40
2015,09,28,10,31,13.40
2015,09,28,10,32,13.40
2015,09,28,10,33,13.40
2015,09,28,10,34,13.40
2015,09,28,10,35,13.40
2015,09,28,10,36,13.40
2015,09,28,10,37,13.40
2015,09,28,10,38,13.40
2015,09,28,10,39,13.50
2015,09,28,10,40,13.50
2015,09,28,10,41,13.50
2015,09,28,10,42,13.50
2015,09,28,10,43,13.60
2015,09,28,10,44,13.60
2015,09,28,10,45,13.60
2015,09,28,10,46,13.60
2015,09,28,10,47,13.60
2015,09,28,10,48,13.60
2015,09,28,10,49,13.60
2015,09,28,10,50,13.60
2015,09,28,10,51,13.70
2015,09,28,10,52,13.70
2015,09,28,10,53,13.70
2015,09,28,10,54,13.70
2015,09,28,10,55,13.70
2015,09,28,10,56,13.70
2015,09,28,10,57,13.70
2015,09,28,10,58,13.70
2015,09,28,10,59,13.80
2015,09,28,11,00,13.80
2015,09,28,11,01,13.80
2015,09,28,11,02,13.80
2015,09,28,11,03,13.90
2015,09,28,11,04,13.90
2015,09,28,11,05,13.90
2015,09,28,11,06,14.00
2015,09,28,11,07,14.00
2015,09,28,11,08,14.00
2015,09,28,11,09,14.10
2015,09,28,11,10,14.10
2015,09,28,11,11,14.10
2015,09,28,11,12,14.10
2015,09,28,11,13,14.20
2015,09,28,11,14,14.20
2015,09,28,11,15,14.20
2015,09,28,11,16,14.20
2015,09,28,11,17,14.20
2015,09,28,11,18,14.20
2015,09,28,11,19,14.30
2015,09,28,11,20,14.30
2015,09,28,11,21,14.30
2015,09,28,11,22,14.30
2015,09,28,11,23,14.30
2015,09,28,11,24,14.30
2015,09,28,11,25,14.30
2015,09,28,11,26,14.30
2015,09,28,11,27,14.30
2015,09,28,11,28,14.30
2015,09,28,11,29,14.30
2015,09,28,11,30,14.30
2015,09,28,11,31,14.40
2015,09,28,11,32,14.40
2015,09,28,11,33,14.40
2015,09,28,11,34,14.50
2015,09,28,11,35,14.50
2015,09,28,11,36,14.60
2015,09,28,11,37,14.60
2015,09,28,11,38,14.70
2015,09,28,11,39,14.70
2015,09,28,11,40,14.70
2015,09,28,11,41,14.70
2015,09,28,11,42,14.70
2015,09,28,11,43,14.80
2015,09,28,11,44,14.80
2015,09,28,11,45,14.80
2015,09,28,11,46,14.80
2015,09,28,11,47,14.70
2015,09,28,11,48,14.80
2015,09,28,11,49,14.80
2015,09,28,11,50,14.80
2015,09,28,11,51,14.90
2015,09,28,11,52,14.90
2015,09,28,11,53,14.90
2015,09,28,11,54,14.90
2015,09,28,11,55,14.90
2015,09,28,11,56,14.90
2015,09,28,11,57,15.00
2015,09,28,11,58,15.00
2015,09,28,11,59,15.00
2015,09,28,12,00,15.10
2015,09,28,12,01,15.10
2015,09,28,12,02,15.10
2015,09,28,12,03,15.10
2015,09,28,12,04,15.10
2015,09,28,12,05,15.20
2015,09,28,12,06,15.10
2015,09,28,12,07,15.10
2015,09,28,12,08,15.10
2015,09,28,12,09,15.10
2015,09,28,12,10,15.10
2015,09,28,12,11,15.10
2015,09,28,12,12,15.10
2015,09,28,12,13,15.10
2015,09,28,12,14,15.20
2015,09,28,12,15,15.20
2015,09,28,12,16,15.20
2015,09,28,12,17,15.20
2015,09,28,12,18,15.20
2015,09,28,12,19,15.20
2015,09,28,12,20,15.20
2015,09,28,12,21,15.20
2015,09,28,12,22,15.20
2015,09,28,12,23,15.30
2015,09,28,12,24,15.30
2015,09,28,12,25,15.30
2015,09,28,12,26,15.30
2015,09,28,12,27,15.30
2015,09,28,12,28,15.40
2015,09,28,12,29,15.40
2015,09,28,12,30,15.40
2015,09,28,12,31,15.40
2015,09,28,12,32,15.40
2015,09,28,12,33,15.50
2015,09,28,12,34,15.50
2015,09,28,12,35,15.50
2015,09,28,12,36,15.60
2015,09,28,12,37,15.50
2015,09,28,12,38,15.60
2015,09,28,12,39,15.60
2015,09,28,12,40,15.60
2015,09,28,12,41,15.60
2015,09,28,12,42,15.60
2015,09,28,12,43,15.60
2015,09,28,12,44,15.60
2015,09,28,12,45,15.60
2015,09,28,12,46,15.60
2015,09,28,12,47,15.70
2015,09,28,12,48,15.70
2015,09,28,12,49,15.70
2015,09,28,12,50,15.80
2015,09,28,12,51,15.80
2015,09,28,12,52,15.80
2015,09,28,12,53,15.90
2015,09,28,12,54,15.90
2015,09,28,12,55,15.90
2015,09,28,12,56,15.90
2015,09,28,12,57,15.90
2015,09,28,12,58,15.90
2015,09,28,12,59,15.90
2015,09,28,13,00,15.90
2015,09,28,13,01,15.90
2015,09,28,13,02,15.90
2015,09,28,13,03,15.90
2015,09,28,13,04,15.90
2015,09,28,13,05,15.90
2015,09,28,13,06,16.00
2015,09,28,13,07,16.00
2015,09,28,13,08,16.10
2015,09,28,13,09,16.10
2015,09,28,13,10,16.10
2015,09,28,13,11,16.10
2015,09,28,13,12,16.20
2015,09,28,13,13,16.20
2015,09,28,13,14,16.30
2015,09,28,13,15,16.30
2015,09,28,13,16,16.30
2015,09,28,13,17,16.30
2015,09,28,13,18,16.30
2015,09,28,13,19,16.30
2015,09,28,13,20,16.20
2015,09,28,13,21,16.20
2015,09,28,13,22,16.20
2015,09,28,13,23,16.20
2015,09,28,13,24,16.20
2015,09,28,13,25,16.20
2015,09,28,13,26,16.20
2015,09,28,13,27,16.20
2015,09,28,13,28,16.30
2015,09,28,13,29,16.30
2015,09,28,13,30,16.40
2015,09,28,13,31,16.50
2015,09,28,13,32,16.60
2015,09,28,13,33,16.60
2015,09,28,13,34,16.70
2015,09,28,13,35,16.60
2015,09,28,13,36,16.50
2015,09,28,13,37,16.50
2015,09,28,13,38,16.40
2015,09,28,13,39,16.40
2015,09,28,13,40,16.40
2015,09,28,13,41,16.30
2015,09,28,13,42,16.30
2015,09,28,13,43,16.30
2015,09,28,13,44,16.30
2015,09,28,13,45,16.30
2015,09,28,13,46,16.30
2015,09,28,13,47,16.30
2015,09,28,13,48,16.30
2015,09,28,13,49,16.40
2015,09,28,13,50,16.40
2015,09,28,13,51,16.40
2015,09,28,13,52,16.40
2015,09,28,13,53,16.40
2015,09,28,13,54,16.50
2015,09,28,13,55,16.50
2015,09,28,13,56,16.50
2015,09,28,13,57,16.60
2015,09,28,13,58,16.60
2015,09,28,13,59,16.60
2015,09,28,14,00,16.70
2015,09,28,14,01,16.70
2015,09,28,14,02,16.70
2015,09,28,14,03,16.80
2015,09,28,14,04,16.80
2015,09,28,14,05,16.80
2015,09,28,14,06,16.80
2015,09,28,14,07,16.80
2015,09,28,14,08,16.80
2015,09,28,14,09,16.80
2015,09,28,14,10,16.80
2015,09,28,14,11,16.80
2015,09,28,14,12,16.80
2015,09,28,14,13,16.80
2015,09,28,14,14,16.80
2015,09,28,14,15,16.80
2015,09,28,14,16,16.80
2015,09,28,14,17,16.80
2015,09,28,14,18,16.80
2015,09,28,14,19,16.80
2015,09,28,14,20,16.80
2015,09,28,14,21,16.80
2015,09,28,14,22,16.80
2015,09,28,14,23,16.90
2015,09,28,14,24,16.90
2015,09,28,14,25,16.90
2015,09,28,14,26,17.00
2015,09,28,14,27,17.00
2015,09,28,14,28,17.00
2015,09,28,14,29,17.10
2015,09,28,14,30,17.10
2015,09,28,14,31,17.10
2015,09,28,14,32,17.10
2015,09,28,14,33,17.20
2015,09,28,14,34,17.20
2015,09,28,14,35,17.20
2015,09,28,14,36,17.20
2015,09,28,14,37,17.20
2015,09,28,14,38,17.20
2015,09,28,14,39,17.20
2015,09,28,14,40,17.10
2015,09,28,14,41,17.10
2015,09,28,14,42,17.10
2015,09,28,14,43,17.10
2015,09,28,14,44,17.10
2015,09,28,14,45,17.20
2015,09,28,14,46,17.20
2015,09,28,14,47,17.20
2015,09,28,14,48,17.20
2015,09,28,14,49,17.30
2015,09,28,14,50,17.30
2015,09,28,14,51,17.30
2015,09,28,14,52,17.30
2015,09,28,14,53,17.30
2015,09,28,14,54,17.30
2015,09,28,14,55,17.30
2015,09,28,14,56,17.30
2015,09,28,14,57,17.30
2015,09,28,14,58,17.30
2015,09,28,14,59,17.30
2015,09,28,15,00,17.20
2015,09,28,15,01,17.20
2015,09,28,15,02,17.20
2015,09,28,15,03,17.20
2015,09,28,15,04,17.20
2015,09,28,15,05,17.20
2015,09,28,15,06,17.20
2015,09,28,15,07,17.30
2015,09,28,15,08,17.30
2015,09,28,15,09,17.30
2015,09,28,15,10,17.30
2015,09,28,15,11,17.30
2015,09,28,15,12,17.30
2015,09,28,15,13,17.30
2015,09,28,15,14,17.30
2015,09,28,15,15,17.30
2015,09,28,15,16,17.40
2015,09,28,15,17,17.40
2015,09,28,15,18,17.40
2015,09,28,15,19,17.40
2015,09,28,15,20,17.40
2015,09,28,15,21,17.40
2015,09,28,15,22,17.50
2015,09,28,15,23,17.50
2015,09,28,15,24,17.50
2015,09,28,15,25,17.60
2015,09,28,15,26,17.50
2015,09,28,15,27,17.50
2015,09,28,15,28,17.60
2015,09,28,15,29,17.60
2015,09,28,15,30,17.60
2015,09,28,15,31,17.60
2015,09,28,15,32,17.50
2015,09,28,15,33,17.50
2015,09,28,15,34,17.50
2015,09,28,15,35,17.50
2015,09,28,15,36,17.50
2015,09,28,15,37,17.40
2015,09,28,15,38,17.40
2015,09,28,15,39,17.40
2015,09,28,15,40,17.40
2015,09,28,15,41,17.40
2015,09,28,15,42,17.40
2015,09,28,15,43,17.40
2015,09,28,15,44,17.40
2015,09,28,15,45,17.40
2015,09,28,15,46,17.30
2015,09,28,15,47,17.30
2015,09,28,15,48,17.30
2015,09,28,15,49,17.30
2015,09,28,15,50,17.30
2015,09,28,15,51,17.30
2015,09,28,15,52,17.30
2015,09,28,15,53,17.30
2015,09,28,15,54,17.30
2015,09,28,15,55,17.30
2015,09,28,15,56,17.30
2015,09,28,15,57,17.30
2015,09,28,15,58,17.30
2015,09,28,15,59,17.30
2015,09,28,16,00,17.30
2015,09,28,16,01,17.30
2015,09,28,16,02,17.30
2015,09,28,16,03,17.30
2015,09,28,16,04,17.30
2015,09,28,16,05,17.30
2015,09,28,16,06,17.30
2015,09,28,16,07,17.30
2015,09,28,16,08,17.30
2015,09,28,16,09,17.30
2015,09,28,16,10,17.30
2015,09,28,16,11,17.30
2015,09,28,16,12,17.40
2015,09,28,16,13,17.40
2015,09,28,16,14,17.40
2015,09,28,16,15,17.40
2015,09,28,16,16,17.40
2015,09,28,16,17,17.50
2015,09,28,16,18,17.50
2015,09,28,16,19,17.50
2015,09,28,16,20,17.50
2015,09,28,16,21,17.60
2015,09,28,16,22,17.60
2015,09,28,16,23,17.60
2015,09,28,16,24,17.60
2015,09,28,16,25,17.70
2015,09,28,16,26,17.70
2015,09,28,16,27,17.80
2015,09,28,16,28,17.80
2015,09,28,16,29,17.80
2015,09,28,16,30,17.90
2015,09,28,16,31,17.90
2015,09,28,16,32,17.90
2015,09,28,16,33,17.90
2015,09,28,16,34,17.90
2015,09,28,16,35,17.90
2015,09,28,16,36,17.90
2015,09,28,16,37,17.90
2015,09,28,16,38,18.00
2015,09,28,16,39,18.00
2015,09,28,16,40,18.00
2015,09,28,16,41,18.00
2015,09,28,16,42,18.00
2015,09,28,16,43,18.00
2015,09,28,16,44,18.00
2015,09,28,16,45,17.90
2015,09,28,16,46,17.90
2015,09,28,16,47,17.80
2015,09,28,16,48,17.80
2015,09,28,16,49,17.80
2015,09,28,16,50,17.80
2015,09,28,16,51,17.70
2015,09,28,16,52,17.70
2015,09,28,16,53,17.70
2015,09,28,16,54,17.70
2015,09,28,16,55,17.70
2015,09,28,16,56,17.70
2015,09,28,16,57,17.70
2015,09,28,16,58,17.70
2015,09,28,16,59,17.70
2015,09,28,17,00,17.70
2015,09,28,17,01,17.70
2015,09,28,17,02,17.70
2015,09,28,17,03,17.60
2015,09,28,17,04,17.60
2015,09,28,17,05,17.60
2015,09,28,17,06,17.50
2015,09,28,17,07,17.50
2015,09,28,17,08,17.50
2015,09,28,17,09,17.50
2015,09,28,17,10,17.50
2015,09,28,17,11,17.40
2015,09,28,17,12,17.40
2015,09,28,17,13,17.40
2015,09,28,17,14,17.40
2015,09,28,17,15,17.40
2015,09,28,17,16,17.30
2015,09,28,17,17,17.30
2015,09,28,17,18,17.30
2015,09,28,17,19,17.30
2015,09,28,17,20,17.30
2015,09,28,17,21,17.30
2015,09,28,17,22,17.30
2015,09,28,17,23,17.40
2015,09,28,17,24,17.40
2015,09,28,17,25,17.40
2015,09,28,17,26,17.40
2015,09,28,17,27,17.50
2015,09,28,17,28,17.50
2015,09,28,17,29,17.50
2015,09,28,17,30,17.50
2015,09,28,17,31,17.60
2015,09,28,17,32,17.60
2015,09,28,17,33,17.60
2015,09,28,17,34,17.60
2015,09,28,17,35,17.60
2015,09,28,17,36,17.60
2015,09,28,17,37,17.60
2015,09,28,17,38,17.70
2015,09,28,17,39,17.70
2015,09,28,17,40,17.70
2015,09,28,17,41,17.70
2015,09,28,17,42,17.70